• In Germany
  • List of Countries
  • For 7 days
  • Water Temperature
  • Satellite Maps
  • Weather Map
  • Weather Widgets
  • user-avatar
    Login

    Hourly Weather Viedma

    Today, 25 September, Monday

    Time Temperature Precipitation Wind Pressure Humidity
    00:00 +15°C° 0 mm 7 mps 760 mmHg 40%
    01:00 +14°C° 0 mm 6 mps 761 mmHg 46%
    02:00 +13°C° 0 mm 5 mps 761 mmHg 51%
    03:00 +12°C° 0 mm 4 mps 762 mmHg 52%
    04:00 +11°C° 0 mm 4 mps 763 mmHg 53%
    05:00 +11°C° 0 mm 4 mps 763 mmHg 54%
    06:00 +12°C° 0 mm 5 mps 764 mmHg 50%
    07:00 +11°C° 0 mm 6 mps 765 mmHg 46%
    08:00 +12°C° 0 mm 7 mps 765 mmHg 42%
    09:00 +12°C° 0 mm 7 mps 766 mmHg 39%
    10:00 +14°C° 0 mm 7 mps 766 mmHg 35%
    11:00 +14°C° 0 mm 7 mps 766 mmHg 32%
    12:00 +14°C° 0 mm 7 mps 766 mmHg 31%
    13:00 +14°C° 0 mm 6 mps 766 mmHg 29%
    14:00 +14°C° 0 mm 6 mps 766 mmHg 28%
    15:00 +13°C° 0 mm 6 mps 766 mmHg 30%
    16:00 +12°C° 0 mm 5 mps 766 mmHg 32%
    17:00 +12°C° 0 mm 5 mps 766 mmHg 34%
    18:00 +10°C° 0 mm 5 mps 767 mmHg 38%
    19:00 +9°C° 0 mm 5 mps 767 mmHg 42%
    20:00 +8°C° 0 mm 5 mps 767 mmHg 46%
    21:00 +8°C° 0 mm 4 mps 768 mmHg 48%
    22:00 +8°C° 0 mm 4 mps 768 mmHg 49%
    23:00 +8°C° 0 mm 4 mps 768 mmHg 51%

    Tomorrow, 26 September, Tuesday

    Time Temperature Precipitation Wind Pressure Humidity
    00:00 +8°C° 0 mm 4 mps 768 mmHg 53%
    01:00 +9°C° 0 mm 3 mps 768 mmHg 55%
    02:00 +9°C° 0 mm 3 mps 767 mmHg 57%
    03:00 +8°C° 0 mm 3 mps 767 mmHg 59%
    04:00 +8°C° 0 mm 3 mps 767 mmHg 61%
    05:00 +8°C° 0 mm 3 mps 767 mmHg 63%
    06:00 +9°C° 0 mm 3 mps 767 mmHg 60%
    07:00 +8°C° 0 mm 4 mps 768 mmHg 58%
    08:00 +10°C° 0 mm 4 mps 768 mmHg 56%
    09:00 +11°C° 0 mm 4 mps 768 mmHg 51%
    10:00 +12°C° 0 mm 4 mps 768 mmHg 46%
    11:00 +12°C° 0 mm 4 mps 769 mmHg 41%
    12:00 +13°C° 0 mm 4 mps 768 mmHg 41%
    13:00 +13°C° 0 mm 4 mps 768 mmHg 40%
    14:00 +14°C° 0 mm 4 mps 768 mmHg 39%
    15:00 +13°C° 0 mm 5 mps 767 mmHg 43%
    16:00 +12°C° 0 mm 5 mps 767 mmHg 46%
    17:00 +12°C° 0 mm 5 mps 767 mmHg 50%
    18:00 +9°C° 0 mm 5 mps 767 mmHg 56%
    19:00 +8°C° 0 mm 5 mps 767 mmHg 62%
    20:00 +7°C° 0 mm 4 mps 768 mmHg 68%
    21:00 +6°C° 0 mm 4 mps 768 mmHg 70%
    22:00 +6°C° 0 mm 4 mps 768 mmHg 71%
    23:00 +5°C° 0 mm 4 mps 768 mmHg 73%

    Day after tomorrow, 27 September, Wednesday

    Time Temperature Precipitation Wind Pressure Humidity
    00:00 +5°C° 0 mm 4 mps 768 mmHg 74%
    01:00 +5°C° 0 mm 4 mps 768 mmHg 75%
    02:00 +5°C° 0 mm 4 mps 767 mmHg 76%
    03:00 +4°C° 0 mm 4 mps 767 mmHg 77%
    04:00 +4°C° 0 mm 4 mps 767 mmHg 78%
    05:00 +4°C° 0 mm 4 mps 767 mmHg 79%
    06:00 +5°C° 0 mm 4 mps 767 mmHg 73%
    07:00 +7°C° 0 mm 5 mps 767 mmHg 68%
    08:00 +8°C° 0 mm 5 mps 768 mmHg 62%
    09:00 +10°C° 0 mm 5 mps 767 mmHg 55%
    10:00 +12°C° 0 mm 5 mps 767 mmHg 48%
    11:00 +14°C° 0 mm 5 mps 767 mmHg 41%
    12:00 +15°C° 0 mm 5 mps 766 mmHg 38%
    13:00 +16°C° 0 mm 5 mps 766 mmHg 35%
    14:00 +17°C° 0 mm 6 mps 765 mmHg 32%
    15:00 +17°C° 0 mm 6 mps 765 mmHg 33%
    16:00 +16°C° 0 mm 6 mps 764 mmHg 33%
    17:00 +16°C° 0 mm 6 mps 764 mmHg 34%
    18:00 +14°C° 0 mm 6 mps 764 mmHg 39%
    19:00 +11°C° 0 mm 7 mps 764 mmHg 44%
    20:00 +10°C° 0 mm 7 mps 765 mmHg 50%
    21:00 +9°C° 0 mm 7 mps 764 mmHg 55%
    22:00 +9°C° 0 mm 7 mps 764 mmHg 60%
    23:00 +8°C° 0 mm 7 mps 764 mmHg 65%

    28 September, Thursday

    Time Temperature Precipitation Wind Pressure Humidity
    00:00 +8°C° 0 mm 7 mps 764 mmHg 67%
    01:00 +8°C° 0 mm 6 mps 764 mmHg 69%
    02:00 +7°C° 0 mm 6 mps 764 mmHg 71%
    03:00 +7°C° 0 mm 6 mps 764 mmHg 70%
    04:00 +7°C° 0 mm 6 mps 764 mmHg 70%
    05:00 +7°C° 0 mm 5 mps 764 mmHg 69%
    06:00 +8°C° 0 mm 6 mps 764 mmHg 64%
    07:00 +9°C° 0 mm 7 mps 764 mmHg 59%
    08:00 +10°C° 0 mm 7 mps 765 mmHg 54%
    09:00 +12°C° 0 mm 7 mps 764 mmHg 48%
    10:00 +15°C° 0 mm 7 mps 764 mmHg 42%
    11:00 +17°C° 0 mm 7 mps 764 mmHg 36%
    12:00 +18°C° 0 mm 8 mps 763 mmHg 36%
    13:00 +20°C° 0 mm 8 mps 763 mmHg 35%
    14:00 +20°C° 0 mm 8 mps 762 mmHg 35%
    15:00 +20°C° 0 mm 8 mps 761 mmHg 37%
    16:00 +18°C° 0 mm 8 mps 761 mmHg 40%
    17:00 +18°C° 0 mm 7 mps 760 mmHg 42%
    18:00 +16°C° 0 mm 7 mps 761 mmHg 47%
    19:00 +15°C° 0 mm 7 mps 761 mmHg 51%
    20:00 +14°C° 0 mm 7 mps 761 mmHg 56%
    21:00 +15°C° 0 mm 7 mps 761 mmHg 57%
    22:00 +15°C° 0 mm 7 mps 760 mmHg 58%
    23:00 +15°C° 0 mm 7 mps 760 mmHg 59%

    29 September, Friday

    Time Temperature Precipitation Wind Pressure Humidity
    00:00 +15°C° 0.1 mm 7 mps 760 mmHg 65%
    01:00 +14°C° 0.1 mm 7 mps 760 mmHg 72%
    02:00 +14°C° 0.1 mm 7 mps 759 mmHg 78%
    03:00 +14°C° 0 mm 7 mps 759 mmHg 80%
    04:00 +12°C° 0 mm 7 mps 759 mmHg 81%
    05:00 +13°C° 0 mm 6 mps 758 mmHg 83%
    06:00 +14°C° 0 mm 7 mps 758 mmHg 81%
    07:00 +13°C° 0 mm 8 mps 758 mmHg 78%
    08:00 +15°C° 0 mm 8 mps 758 mmHg 76%
    09:00 +16°C° 0.1 mm 8 mps 758 mmHg 73%
    10:00 +17°C° 0.1 mm 8 mps 758 mmHg 70%
    11:00 +18°C° 0.1 mm 8 mps 757 mmHg 67%
    12:00 +20°C° 0 mm 8 mps 757 mmHg 64%
    13:00 +20°C° 0 mm 8 mps 756 mmHg 62%
    14:00 +21°C° 0 mm 7 mps 755 mmHg 60%
    15:00 +21°C° 0 mm 7 mps 755 mmHg 61%
    16:00 +21°C° 0 mm 7 mps 754 mmHg 63%
    17:00 +21°C° 0 mm 7 mps 754 mmHg 64%
    18:00 +18°C° 0 mm 7 mps 753 mmHg 69%
    19:00 +17°C° 0 mm 6 mps 753 mmHg 75%
    20:00 +16°C° 0 mm 6 mps 753 mmHg 80%
    21:00 +16°C° 0 mm 6 mps 753 mmHg 82%
    22:00 +16°C° 0 mm 6 mps 752 mmHg 84%
    23:00 +15°C° 0 mm 7 mps 752 mmHg 87%

    30 September, Saturday

    Time Temperature Precipitation Wind Pressure Humidity
    00:00 +15°C° 0 mm 7 mps 751 mmHg 86%
    01:00 +15°C° 0 mm 7 mps 751 mmHg 85%
    02:00 +16°C° 0 mm 8 mps 750 mmHg 84%
    03:00 +15°C° 0.3 mm 8 mps 750 mmHg 85%
    04:00 +15°C° 0.3 mm 8 mps 749 mmHg 86%
    05:00 +15°C° 0.3 mm 8 mps 749 mmHg 87%
    06:00 +15°C° 1.1 mm 7 mps 749 mmHg 87%
    07:00 +15°C° 1.1 mm 6 mps 749 mmHg 86%
    08:00 +15°C° 1.1 mm 6 mps 749 mmHg 86%
    09:00 +15°C° 1.9 mm 5 mps 749 mmHg 83%
    10:00 +15°C° 1.9 mm 5 mps 748 mmHg 80%
    11:00 +15°C° 1.9 mm 4 mps 748 mmHg 78%
    12:00 +16°C° 0 mm 5 mps 748 mmHg 68%
    13:00 +19°C° 0 mm 5 mps 748 mmHg 58%
    14:00 +21°C° 0 mm 5 mps 748 mmHg 48%
    15:00 +21°C° 0 mm 5 mps 748 mmHg 47%
    16:00 +20°C° 0 mm 4 mps 748 mmHg 45%
    17:00 +20°C° 0 mm 3 mps 748 mmHg 44%
    18:00 +19°C° 0 mm 3 mps 748 mmHg 50%
    19:00 +17°C° 0 mm 2 mps 748 mmHg 55%
    20:00 +15°C° 0 mm 1 mps 748 mmHg 61%
    21:00 +15°C° 0 mm 1 mps 748 mmHg 62%
    22:00 +14°C° 0 mm 1 mps 748 mmHg 63%
    23:00 +14°C° 0 mm 1 mps 748 mmHg 64%
    Show more